Stowe, VT

7:59 AM EDT on July 25, 2017 (GMT -0400)
West Hill Stowe | | Change Station

Elev 833 ft 44.49 °N, 72.68 °W | Updated 9 minutes ago

Overcast
Overcast
53.9 °F
Feels Like 53.9 °F
N
2.0
Wind Variable Wind from ENE
Gusts 5.0 mph

Today
High -- | Low -- °F
--% Chance of Precip.
Yesterday
High -- | Low -- °F
Precip. -- in
Pressure 30.15 in
Visibility 6.0 miles
Clouds Few 600 ft
Overcast 1900 ft
Dew Point 53 °F
Humidity 96%
Rainfall 0.00 in
Snow Depth Not available.
5:30 AM 8:23 PM
Waxing Crescent, 6% visible
METAR KMVL 251154Z AUTO 34003KT 6SM BR FEW006 OVC019 12/11 A3014 RMK AO2 RAE06 SLP209 P0000 60001 70083 T01220111 10122 20111 53022
Pressure 30.15 in
Visibility 6.0 miles
Clouds Few 600 ft
Overcast 1900 ft
Dew Point 53 °F
Humidity 96%
Rainfall 0.00 in
Snow Depth Not available.
5:30 AM 8:23 PM
Waxing Crescent, 6% visible
METAR KMVL 251154Z AUTO 34003KT 6SM BR FEW006 OVC019 12/11 A3014 RMK AO2 RAE06 SLP209 P0000 60001 70083 T01220111 10122 20111 53022

Get Severe Weather Alerts

Thanks for signing up!

Be on the lookout for a verification email in your inbox.

You'll start receiving the daily forecast at 6 AM.

×

10-Day Weather Forecast

Almanac

Astronomy

Jul. 25, 2017 Rise Set
Actual Time
Civil Twilight
Nautical Twilight
Astronomical Twilight
Moon
Length of Visible Light
Length of Day
Tomorrow will be .
, % of the Moon is Illuminated

Today's Extremes

State Highs State Lows

Community

WunderPhotos

Category 6

Welcome to Category 6. This is the collective home for Weather Underground's featured writeups by Dr. Jeff Masters (right), Bob Henson (left), Chris Burt, and other regular contributors.

Nearby

Air Quality

  Air Quality AQ Index Pollutant
Not available.

Snow Depth

Station Depth Elevation

Earthquake Activity

City Distance Mag. Time & Date
Minimum magnitude displayed is 2.5.

Coastal Water Temperatures

Place Temperature

Stations

Nearby Weather Stations

Station Location Temp. Windchill Dew Point Humidity Wind Precip. Elev Updated Type
                   

Watches & Warnings

There are currently no watches in effect.